Location: Bazugues
(43.4465°N, 0.3432°E)
Time: 15:31:03
(UTC+00:00)

Cosmos 676 Rocket - Pass Details

Date: 12 January 2026
Orbit: 750 x 779 km, 74.0° (Epoch: 18 February)

Event Time Altitude Azimuth Distance (km) Brightness Sun altitude
Rises 17:14:19 0° 345° (NNW) 3,213 7.1 -5.7°
Reaches altitude 10° 17:16:50 10° 354° (N) 2,287 6.3 -6.1°
Maximum altitude 17:21:41 39° 63° (ENE) 1,124 4.4 -6.9°
Drops below altitude 10° 17:26:32 10° 132° (SE) 2,289 6.2 -7.7°
Sets 17:29:03 0° 140° (SE) 3,215 7.0 -8.1°
